Theta_e
319 319 319 319 318 319 320 319 319 317 317 315 315 316 316 319 319 319 319 320 319 320 320 317 328 338 340 337 338 338 336 338 338 334 332 338 340 338 335 328 325 321 316 314 313 315 316 318 319 319 319 319 318 316 315 317 319 322 323 324 326 327 327 326 327 328 329 329 328 329 328 328 327 326 322 320 319 318 319 321 324 323 320 316 312 309 308 308 309 309 308 310 312 311 310 310 310
319 319 318 318 318 319 319 318 318 316 316 314 315 317 316 318 319 319 319 319 320 319 319 320 331 339 339 337 337 338 337 337 337 337 337 340 339 338 334 328 326 322 316 313 313 314 317 318 319 320 319 319 318 317 315 316 320 322 323 325 326 327 327 326 328 329 328 328 328 327 328 328 327 323 320 319 322 322 323 324 322 317 311 308 307 307 308 309 310 309 308 308 309 310 310 311 312
318 319 318 318 318 319 319 318 318 316 315 314 315 318 317 318 319 318 318 319 319 320 318 324 335 338 337 338 337 337 338 338 338 339 340 341 341 339 333 328 327 323 316 313 313 314 317 318 319 321 320 319 319 317 315 315 319 322 323 325 327 328 327 327 328 328 329 328 328 327 327 327 325 321 318 320 326 326 324 322 317 310 307 308 307 307 308 309 308 308 308 310 312 313 313 313 314
317 318 317 318 318 318 320 319 318 316 314 313 315 318 318 318 318 318 319 318 319 319 318 321 329 334 336 336 337 339 339 340 340 340 341 341 341 338 332 329 328 323 316 313 313 314 316 318 319 320 320 319 319 318 315 315 319 323 324 325 327 328 328 328 328 328 329 329 328 328 327 325 323 320 318 320 326 325 321 317 311 308 308 308 307 308 309 308 308 309 313 315 317 317 318 318 318
316 317 316 317 318 318 318 317 317 316 315 315 315 318 318 318 317 318 318 318 319 319 318 319 321 327 333 337 339 340 340 342 342 342 342 341 340 338 334 330 328 322 316 313 312 314 316 317 319 319 319 319 319 318 316 315 318 322 323 324 326 327 328 328 328 329 329 329 328 328 326 324 321 319 317 318 323 324 316 311 308 308 309 307 308 309 310 310 311 314 317 320 321 322 322 322 322
315 315 316 317 317 317 317 315 315 315 317 317 317 318 318 318 317 317 317 318 319 318 318 320 319 324 331 338 339 339 340 342 343 343 342 341 340 339 337 332 327 321 315 312 312 314 316 318 319 319 319 320 320 319 317 315 317 321 323 324 325 326 328 328 327 328 329 329 329 328 326 322 320 318 317 317 322 323 315 308 308 309 309 308 308 310 312 313 315 318 320 322 324 326 326 325 323
314 315 316 317 317 316 317 316 316 317 317 317 318 319 318 319 318 317 317 318 319 319 319 319 322 326 328 330 331 332 335 335 339 342 342 342 340 339 341 333 325 320 315 312 313 314 316 319 319 320 320 320 320 320 317 315 316 320 322 323 324 326 326 327 328 329 329 329 328 327 325 322 319 317 316 316 320 323 316 309 309 309 309 308 308 311 314 317 318 320 322 325 327 328 327 326 324
314 315 317 318 317 316 318 316 316 317 316 315 317 317 318 319 317 317 317 318 318 318 319 318 323 324 321 325 325 325 327 327 332 338 341 341 340 340 341 332 324 319 314 312 313 314 316 318 319 320 319 320 320 320 318 316 315 318 321 323 323 324 325 326 328 329 329 329 328 326 323 321 318 316 315 315 318 321 318 312 309 309 309 309 308 310 314 318 320 321 324 326 328 328 328 326 325
314 315 316 318 316 315 316 316 316 316 315 315 316 316 317 318 318 318 317 318 318 317 318 318 320 321 320 325 326 323 323 324 328 335 340 342 340 341 340 330 324 319 315 313 313 314 315 316 319 320 320 320 321 320 319 317 315 316 319 322 323 324 325 325 328 329 329 328 326 324 322 319 317 315 314 314 316 319 319 313 310 310 309 309 309 309 311 316 319 321 323 325 327 327 327 327 326
314 315 315 316 316 315 315 315 316 316 316 316 316 316 317 318 317 317 318 317 317 317 318 318 319 321 320 323 323 322 322 323 327 332 339 342 341 342 339 329 323 319 316 313 313 314 314 316 318 319 320 320 321 321 319 318 316 316 317 320 322 323 324 324 327 328 328 327 325 322 319 317 315 313 313 312 313 317 319 315 310 310 310 309 309 309 310 313 317 320 321 323 325 326 326 325 325
315 315 314 316 315 314 314 314 316 316 316 315 316 316 316 317 316 317 318 317 317 317 318 318 320 320 321 324 324 322 323 324 329 333 339 342 342 343 338 327 323 320 317 314 313 313 313 315 317 318 318 319 320 321 320 318 317 315 317 319 321 323 324 325 326 327 327 326 323 320 317 315 312 311 311 311 311 314 317 316 312 310 310 310 310 309 309 310 314 318 320 321 323 324 325 325 325
315 315 315 315 315 315 315 315 316 317 316 314 316 317 317 317 316 317 318 318 318 317 317 318 319 321 323 328 327 323 325 328 332 336 341 344 343 343 335 327 325 322 318 313 313 313 313 314 315 316 317 319 320 320 320 318 316 316 317 318 321 323 325 326 327 327 327 325 322 318 315 312 310 310 310 311 311 312 315 316 314 310 310 310 310 310 310 310 312 315 318 319 321 322 323 325 326
314 315 315 315 315 315 315 315 316 318 316 315 316 317 317 316 316 318 318 318 318 317 318 317 319 321 320 324 326 325 327 330 333 338 343 344 344 342 333 329 329 325 319 314 313 313 313 313 314 314 315 318 320 321 320 319 317 316 316 318 321 325 326 327 328 327 326 323 320 316 312 309 309 309 310 310 310 311 313 314 315 312 310 310 311 310 310 310 311 313 316 317 319 321 321 323 324
313 314 315 315 314 315 315 314 315 316 316 317 316 316 316 316 317 318 317 317 318 318 318 320 319 319 323 325 325 327 329 330 334 340 344 344 345 341 334 334 333 328 321 316 316 315 315 314 314 314 315 318 321 321 321 319 317 316 317 318 323 326 328 328 329 328 326 323 318 313 309 309 309 309 310 310 310 311 311 313 313 313 311 311 311 311 311 311 311 311 313 315 316 318 320 321 322
312 313 315 315 313 314 315 314 315 315 316 317 316 316 315 317 317 317 317 318 319 320 320 322 322 320 327 329 325 330 332 333 335 341 345 345 345 341 336 337 336 330 323 320 321 319 319 317 314 314 314 318 320 321 321 319 317 316 316 320 325 328 328 329 330 329 326 322 316 311 309 309 309 309 310 310 310 310 311 311 312 313 313 311 311 311 311 311 311 311 311 312 314 316 318 320 322
312 313 314 314 313 313 313 314 315 314 316 316 316 316 315 316 317 317 317 317 319 321 321 324 326 323 324 326 327 334 337 336 338 342 345 345 345 342 339 339 337 331 326 326 325 323 322 319 317 314 315 317 319 320 320 319 317 315 318 324 328 329 329 330 330 330 327 321 314 311 309 309 309 309 309 309 310 310 310 311 311 312 313 313 312 311 311 311 311 311 311 311 312 313 316 318 321
311 314 314 314 312 313 313 314 315 314 316 316 315 315 315 316 317 317 317 317 317 318 321 322 324 322 321 323 328 337 340 338 339 343 345 345 345 344 341 340 337 333 331 331 329 327 324 320 319 316 315 317 318 320 320 320 316 315 324 329 329 330 331 331 331 330 327 320 314 311 309 309 309 309 310 309 309 310 310 310 311 312 312 313 313 313 312 311 312 312 312 312 312 313 314 315 318
311 313 313 313 313 313 314 314 315 315 316 317 315 314 316 316 316 317 316 316 316 317 320 318 321 322 321 323 329 337 340 339 340 343 345 346 345 344 342 340 338 337 337 336 331 329 327 321 319 317 315 316 318 320 321 320 317 318 330 333 331 332 332 332 331 331 327 320 315 311 309 309 309 309 309 309 309 309 310 310 311 311 312 313 314 314 313 312 312 313 313 313 314 314 314 314 316
312 313 312 312 314 313 314 315 315 315 316 318 316 314 315 316 316 316 316 316 315 320 322 322 328 327 322 323 329 336 339 340 341 343 345 346 346 345 343 341 340 340 341 339 334 333 328 322 319 317 316 316 318 321 320 321 321 325 334 336 335 335 334 332 332 330 327 320 315 311 309 309 309 310 310 310 310 310 310 310 310 310 310 312 314 315 315 313 313 313 314 315 316 316 315 315 316
312 312 312 312 313 313 313 314 314 314 315 317 317 315 314 315 316 315 315 315 314 319 323 326 332 327 321 323 327 334 338 340 342 344 345 346 346 345 344 343 342 343 342 340 337 335 330 324 321 318 316 316 318 321 322 322 325 330 335 337 336 336 336 334 332 330 326 320 315 311 309 309 309 310 309 310 310 310 311 310 310 310 310 311 312 314 315 315 314 315 315 316 317 317 317 316 317
312 311 312 312 312 312 312 312 313 314 314 316 316 314 313 314 315 314 315 315 314 315 318 321 324 320 318 322 326 332 337 340 342 344 345 345 345 345 344 344 343 343 342 340 339 337 334 329 323 318 317 319 320 322 323 323 324 329 334 337 336 336 336 333 331 330 326 320 315 311 309 309 309 309 310 310 310 310 310 311 311 311 311 311 310 311 312 313 315 316 316 317 316 315 316 317 316
311 312 312 312 311 312 312 312 313 314 314 314 314 313 313 314 314 314 315 315 315 316 316 316 317 317 317 319 323 329 336 340 341 344 345 345 345 345 344 343 343 343 342 341 340 340 338 333 325 319 318 320 322 321 324 324 322 326 334 336 335 336 336 332 332 330 325 320 314 310 309 309 309 309 309 309 310 310 310 311 311 311 311 311 311 312 311 311 311 312 313 314 315 317 321 323 323
311 311 312 311 311 312 312 312 313 314 313 313 313 313 313 313 313 313 314 315 315 316 316 316 316 317 318 320 323 327 335 339 341 343 345 345 345 345 344 343 343 342 342 342 342 341 339 332 324 319 319 318 319 321 325 326 325 327 332 333 334 336 335 331 331 329 325 318 313 310 310 310 310 310 310 310 311 311 311 312 313 314 315 316 317 318 319 317 315 314 315 316 320 325 328 330 331
310 311 311 312 311 312 313 312 313 313 313 313 313 313 312 313 313 312 313 314 315 315 316 316 316 317 318 321 325 329 335 338 341 342 344 345 345 344 344 344 343 342 343 342 342 341 338 332 323 319 318 317 319 323 328 328 327 329 331 333 334 335 333 330 330 329 323 317 314 314 313 314 313 312 311 311 313 314 315 315 316 319 322 325 327 327 329 329 327 325 326 327 329 331 332 333 333
310 311 311 312 311 312 312 312 313 313 312 313 312 313 313 313 312 312 313 314 315 315 315 315 316 317 319 322 327 333 336 339 341 342 343 344 344 344 344 343 343 343 342 342 342 341 337 330 323 319 317 317 321 324 328 330 330 331 332 333 334 334 331 329 330 328 321 317 319 320 319 318 317 315 314 314 316 319 320 321 323 326 329 332 333 333 334 334 334 333 333 333 333 333 333 333 333
310 311 311 312 312 312 312 312 313 312 313 313 313 314 314 314 312 313 313 314 315 315 315 315 316 319 321 323 326 332 338 339 341 341 342 344 344 344 344 343 343 344 343 343 341 340 337 330 324 319 317 318 320 321 327 332 333 334 334 333 333 333 331 329 329 327 320 318 323 324 324 323 320 318 318 319 323 325 326 327 329 331 332 333 334 335 335 334 334 334 334 334 333 333 333 332 331
309 311 311 312 313 313 312 313 313 312 312 313 314 314 315 315 313 314 315 315 315 315 315 314 317 321 322 322 326 334 339 340 341 341 342 343 344 344 344 344 344 344 343 342 341 339 337 330 325 320 317 318 318 319 327 332 334 334 332 331 333 333 329 327 328 326 320 320 326 327 326 325 322 320 320 322 328 330 330 331 332 332 332 332 333 333 333 333 334 333 333 332 332 331 331 331 330
309 310 311 311 311 312 312 313 313 313 313 313 313 313 315 314 313 314 315 315 316 317 318 317 318 322 324 324 328 337 340 341 340 340 342 343 344 344 344 344 344 344 343 343 341 339 337 331 325 321 318 317 316 319 326 331 334 333 331 332 335 332 326 327 328 323 320 324 329 328 327 325 324 322 322 326 330 332 333 333 334 333 332 332 332 333 333 333 333 333 332 330 330 330 330 329 328
309 310 310 310 310 310 311 312 312 312 313 313 313 312 313 313 313 314 315 315 315 317 318 318 320 323 325 326 332 339 341 340 340 341 342 343 344 344 344 344 345 344 344 343 341 339 337 332 327 322 317 315 315 318 323 329 333 333 331 333 334 330 326 327 326 321 322 328 330 328 326 325 324 324 325 328 331 332 333 334 333 333 331 331 332 333 333 333 333 333 331 330 330 330 329 328 328
309 309 309 309 309 310 311 312 312 312 313 313 312 311 312 314 314 314 315 315 315 319 321 319 322 325 325 328 335 340 341 340 340 340 342 343 343 344 344 344 344 344 344 343 341 340 337 334 331 325 318 315 315 317 320 325 330 331 330 332 332 329 328 327 323 322 326 330 329 326 324 324 324 324 326 328 329 330 332 334 333 331 330 330 331 332 331 332 333 333 331 331 331 330 329 328 328
308 309 309 309 309 310 310 311 312 311 312 313 312 311 312 314 314 314 314 314 315 324 326 322 325 325 325 331 336 341 341 340 340 340 341 342 343 344 343 344 344 344 345 343 341 339 337 336 335 329 322 315 314 316 318 321 326 328 329 329 329 330 329 326 323 325 328 329 328 327 325 325 324 325 326 326 327 329 331 333 332 330 330 330 330 331 331 332 333 332 331 331 332 331 330 330 329
308 308 309 309 309 309 309 310 311 311 312 313 312 312 313 314 314 314 314 314 317 326 331 330 330 324 326 334 336 340 342 342 341 340 341 342 342 343 343 344 344 344 345 343 342 340 336 334 334 331 324 317 314 315 316 319 321 324 326 325 326 330 329 325 325 329 330 329 328 328 327 326 326 326 325 325 325 327 331 334 333 331 330 331 332 331 331 332 331 331 330 330 332 332 332 330 329
309 308 309 309 309 309 309 309 311 312 312 311 312 312 313 314 315 315 314 313 317 327 335 338 336 331 330 333 335 340 343 342 340 340 340 341 340 342 343 344 344 344 344 342 340 338 334 333 333 330 325 318 315 315 315 318 319 322 324 323 324 329 328 325 327 330 331 330 329 329 329 329 328 327 326 325 326 329 332 335 334 332 331 332 333 331 331 332 330 330 330 329 330 331 330 329 328
309 309 309 309 308 309 309 309 310 311 312 311 312 312 312 314 314 314 312 313 319 326 334 340 341 340 338 336 334 340 343 342 339 336 336 338 341 342 344 344 344 343 343 342 341 340 338 338 336 333 329 322 316 315 314 315 318 322 323 321 323 328 329 326 328 331 332 331 330 330 331 331 330 329 327 328 330 333 335 335 333 332 332 333 333 332 332 331 329 329 329 329 328 328 328 328 327
310 309 308 308 308 309 309 309 310 310 311 311 311 312 312 313 313 314 312 312 319 325 332 338 341 343 343 341 338 338 341 340 335 336 339 340 341 342 343 343 343 343 343 343 344 343 340 339 337 334 332 326 319 315 313 317 323 325 324 322 325 328 328 328 331 333 332 331 331 331 332 332 332 330 331 332 333 335 334 333 332 332 333 333 333 333 332 331 330 329 329 329 329 328 328 327 326
309 309 309 309 309 309 309 309 310 310 311 311 311 312 312 313 313 314 313 312 316 324 333 339 341 343 345 344 341 338 337 335 336 340 340 340 340 341 343 343 343 343 343 345 345 343 339 338 338 334 330 324 320 316 316 324 329 327 322 323 326 328 328 330 333 333 332 332 332 332 333 333 332 331 332 333 333 334 333 331 331 333 334 334 334 334 332 331 331 330 330 330 330 329 328 327 326
309 309 309 309 309 309 309 309 309 309 311 311 312 312 312 312 313 313 314 313 315 325 334 339 341 343 345 345 343 340 337 339 340 341 341 340 339 341 342 342 343 344 344 345 344 342 340 339 338 335 331 323 320 319 317 322 325 322 321 324 326 327 329 333 334 333 333 333 333 333 333 332 332 333 334 333 332 333 331 330 331 334 334 334 334 333 332 332 332 332 331 331 331 330 329 328 325
308 309 310 309 309 309 309 309 309 309 310 311 312 311 311 312 313 313 315 315 316 323 333 339 340 343 344 344 344 341 341 342 341 341 341 341 341 340 341 342 343 344 344 345 344 342 341 340 337 334 332 326 325 324 319 318 318 317 321 324 324 326 330 333 334 334 333 333 333 333 333 332 332 333 335 333 332 332 330 328 331 334 334 333 332 332 333 333 333 332 331 331 331 330 329 327 325
308 309 309 309 309 309 309 309 309 308 309 311 311 310 311 312 313 313 314 315 317 321 328 335 339 342 344 344 344 343 343 343 341 341 341 341 341 341 341 341 343 344 344 345 344 343 343 340 336 333 333 331 329 328 325 324 322 319 321 321 322 327 331 333 334 335 334 333 333 333 333 333 332 333 334 333 332 330 329 329 332 334 332 331 331 332 333 334 333 332 331 331 332 331 330 328 326
308 308 309 309 308 309 310 309 310 309 309 311 311 311 312 312 313 312 313 315 318 322 328 335 338 341 342 341 343 343 343 342 339 338 340 340 340 340 340 340 341 343 343 344 344 344 344 341 335 334 335 333 330 330 329 328 327 325 323 321 324 329 332 333 335 335 334 334 334 333 333 332 331 332 334 333 330 329 330 331 333 332 330 329 331 332 333 333 333 332 331 331 331 332 331 329 327
308 308 309 309 308 309 310 310 310 309 309 310 310 311 311 313 313 312 315 317 319 325 332 337 341 341 340 340 342 343 342 339 337 338 339 338 338 339 339 340 341 342 343 344 344 344 344 342 337 335 335 334 332 331 332 332 331 327 324 325 329 331 332 334 335 335 334 334 334 333 331 331 331 333 334 331 330 331 331 331 331 330 330 330 331 332 333 333 333 332 333 332 332 332 331 330 328
308 308 308 308 308 309 309 309 310 309 311 310 310 312 311 314 314 312 319 319 319 327 332 335 340 342 342 342 342 342 341 340 339 340 339 336 337 338 339 340 341 342 343 343 344 344 344 343 339 336 337 336 335 334 333 334 333 329 327 329 331 332 333 334 334 334 334 333 333 331 330 331 332 334 334 332 332 333 331 329 330 330 331 331 332 333 334 334 334 333 333 333 332 332 331 330 328
308 308 308 308 308 308 308 309 310 310 311 310 310 311 312 313 313 314 319 319 320 327 330 334 338 340 341 341 342 341 341 341 340 340 339 336 335 336 338 339 340 341 342 343 343 344 343 340 338 337 338 337 336 337 335 333 333 330 330 332 333 333 334 333 334 334 334 333 332 330 330 333 334 335 334 334 334 334 332 331 331 332 331 332 332 333 333 333 333 333 333 332 331 331 330 328 327
307 308 308 308 308 309 309 309 310 310 311 310 310 310 312 311 314 321 322 321 323 326 329 333 336 338 339 340 341 341 340 340 340 340 338 335 332 335 337 338 339 340 341 342 342 342 340 338 338 337 337 338 337 337 336 333 332 332 333 334 334 335 334 333 334 334 333 332 330 329 332 334 335 335 335 334 334 334 333 333 333 333 332 332 332 332 333 333 333 332 331 330 329 329 328 326 323
307 308 308 308 309 309 309 309 310 310 310 311 310 310 312 311 314 323 323 320 322 325 327 330 333 335 337 339 339 339 339 340 339 339 338 336 334 336 337 338 339 339 340 341 341 341 339 338 339 337 337 338 338 338 336 334 333 333 335 335 334 334 334 334 334 333 332 331 330 331 334 335 335 335 334 333 333 334 333 334 333 332 332 331 332 332 332 332 331 329 328 327 327 326 323 321 319
307 308 308 308 309 308 309 309 310 310 310 312 311 309 311 311 312 321 324 320 321 324 325 327 331 333 335 337 338 338 338 338 338 338 338 337 337 337 337 337 338 339 340 340 340 341 339 338 339 337 338 339 339 338 338 336 334 334 335 335 334 333 334 334 334 333 332 332 331 333 334 335 334 334 333 332 332 333 333 333 332 332 331 331 331 331 331 330 328 326 325 325 324 322 318 316 315
307 307 307 308 308 309 309 309 309 310 311 312 311 310 310 312 312 318 323 323 322 322 323 325 328 331 332 334 335 336 336 337 337 338 337 338 338 337 336 336 337 338 339 339 339 341 339 338 339 339 339 340 340 338 337 337 336 334 335 334 333 334 334 333 333 333 334 333 332 333 335 335 334 334 333 332 332 333 332 331 331 330 330 330 331 330 327 325 324 323 323 322 319 316 315 314 313
307 308 308 308 308 309 309 309 309 310 311 311 310 310 310 311 312 315 320 323 323 322 322 323 325 328 330 330 332 334 335 336 337 337 337 337 337 337 336 336 337 338 339 339 338 339 337 336 338 340 340 340 340 338 336 337 336 335 334 333 333 334 333 333 334 334 335 333 331 332 334 334 334 334 333 332 332 332 331 331 330 330 330 330 329 326 322 320 320 321 319 317 315 313 313 313 313
307 308 308 307 308 308 309 310 310 310 311 310 309 309 310 311 312 313 316 318 321 323 322 323 325 328 328 326 328 332 334 335 336 336 337 335 336 337 336 336 337 338 338 338 338 338 337 336 338 339 340 340 340 338 336 337 337 335 334 333 333 334 333 333 333 334 334 332 331 332 333 334 334 333 331 332 331 330 330 330 330 330 330 329 325 320 317 317 317 317 315 313 313 313 313 313 313
308 308 308 308 308 309 309 310 309 310 310 309 308 309 311 311 312 314 314 315 319 323 324 324 323 324 323 323 328 331 333 334 335 336 336 335 334 336 336 336 336 337 338 338 338 339 339 338 338 340 340 340 340 338 336 337 335 335 334 333 333 334 333 332 332 332 333 333 333 334 334 333 333 332 331 331 330 330 330 330 330 330 329 326 321 316 314 314 314 314 313 313 313 313 312 312 312
308 308 308 309 308 309 309 309 309 310 311 310 309 310 311 312 313 315 316 317 318 320 321 322 322 320 320 324 328 332 333 334 335 335 335 335 334 335 335 335 336 337 338 338 338 339 339 338 339 340 340 340 338 337 337 336 335 334 334 334 334 334 333 333 332 332 333 334 334 334 333 333 333 332 331 330 330 330 330 330 330 329 327 324 317 314 314 313 313 313 312 312 312 312 312 311 310
308 307 308 309 309 310 309 309 311 311 311 311 310 311 313 313 314 318 322 322 322 322 321 321 323 322 322 326 331 332 333 334 335 335 335 334 334 334 334 334 336 337 338 338 337 338 338 338 339 340 340 339 338 337 336 336 335 334 333 333 334 334 333 332 331 331 332 334 335 334 333 333 333 331 330 330 330 330 330 330 329 328 325 321 315 313 313 313 313 313 312 312 312 311 311 309 309
308 307 308 308 308 310 311 310 310 311 311 312 311 311 312 312 314 322 326 326 326 328 326 325 327 327 328 331 333 333 334 335 335 334 334 334 334 334 333 334 336 337 337 338 337 338 338 339 340 340 339 338 337 337 336 335 335 334 333 333 333 334 333 332 331 331 332 334 334 334 333 332 332 331 330 330 330 330 330 329 329 327 323 318 314 313 313 313 312 312 311 311 311 310 309 308 308
308 307 308 308 307 309 311 310 310 310 310 312 312 311 312 311 313 324 329 328 330 329 328 328 330 331 331 333 333 334 334 335 335 334 334 333 333 333 333 335 337 337 337 337 337 338 338 340 341 339 339 338 337 337 335 334 335 334 333 333 333 333 332 331 332 333 333 333 333 333 333 331 331 330 330 330 329 329 328 328 328 326 320 315 313 313 313 312 312 312 311 310 310 309 308 308 307
308 309 308 309 309 309 310 310 311 311 310 312 312 312 313 311 312 321 327 329 332 329 328 329 330 331 333 333 334 334 334 334 334 334 333 333 333 333 334 336 337 337 336 336 337 337 338 340 339 339 338 338 337 337 336 335 335 335 334 334 333 333 331 331 333 334 334 334 333 332 332 331 331 330 330 329 328 328 327 326 326 324 317 313 313 312 312 312 311 310 309 309 308 308 308 307 307
308 310 308 308 310 310 310 311 311 312 311 311 313 313 313 313 313 317 321 329 333 331 330 329 329 332 333 333 334 334 334 334 334 334 333 333 333 334 335 336 337 336 336 336 336 337 338 338 337 338 338 338 337 337 336 335 334 334 334 333 332 331 331 331 333 334 334 333 333 332 331 331 331 330 329 328 327 327 326 326 325 322 315 312 313 312 312 311 310 309 308 307 308 308 308 307 305
308 310 309 308 309 309 310 311 310 311 312 311 313 313 313 315 317 315 318 328 332 331 331 330 330 333 333 333 334 334 334 334 334 334 333 333 334 334 335 336 336 336 335 336 336 336 337 337 337 338 337 337 337 337 337 335 333 333 332 331 331 332 332 331 331 333 334 333 332 331 331 331 331 329 328 327 327 327 326 326 325 319 313 312 312 312 311 310 308 307 307 307 308 308 307 304 302
309 310 309 309 309 309 310 310 309 310 311 312 312 313 313 318 319 319 324 328 327 330 330 330 332 333 332 333 333 333 334 334 334 334 333 333 335 335 336 337 336 336 335 335 336 336 336 337 337 337 336 336 337 336 336 335 332 331 331 331 333 334 333 333 332 332 333 331 330 331 331 331 329 328 327 327 327 327 326 325 322 316 312 312 312 311 310 309 307 307 307 308 308 307 304 302 300
Wind_Speed
8 8 9 9 12 12 10 9 3 2 2 1 2 1 1 3 0 2 5 5 2 2 7 12 5 10 5 2 4 2 1 1 2 3 3 7 10 8 21 27 28 28 29 27 26 24 23 23 23 23 22 22 21 19 19 19 19 18 17 17 16 15 14 13 12 12 11 11 11 10 10 9 9 8 7 8 9 11 12 11 10 9 8 6 5 5 4 4 5 6 7 7 7 8 11 13 15
9 8 8 8 9 9 6 6 1 0 1 1 2 1 1 1 0 3 7 6 3 8 13 14 1 13 5 2 2 1 3 5 6 9 11 10 11 9 23 26 26 29 29 28 26 25 25 24 23 23 22 22 21 20 20 20 19 18 17 17 16 15 14 13 13 12 12 12 11 10 10 9 9 8 8 9 11 11 11 11 10 9 9 8 7 7 7 7 8 9 10 10 11 13 15 16 16
10 8 8 7 6 6 3 3 0 0 0 1 3 1 0 1 2 2 3 5 9 14 14 10 3 9 6 5 4 4 4 4 6 9 11 9 7 9 25 24 24 30 29 28 27 25 26 25 24 23 22 22 21 20 20 20 19 18 17 17 16 15 14 14 13 12 12 12 11 11 10 10 9 8 9 10 11 10 10 11 10 10 10 9 9 9 9 10 12 13 13 14 15 16 16 16 16
10 9 8 6 4 3 2 1 0 1 2 1 3 1 2 2 3 1 2 6 13 14 12 8 2 2 3 6 6 5 5 4 4 5 7 6 2 10 25 21 23 32 29 29 28 26 26 25 25 24 23 22 22 21 20 20 20 19 18 17 16 15 15 14 13 12 12 12 11 11 11 10 9 9 9 10 10 10 10 12 12 12 11 10 10 11 11 13 14 15 16 16 16 16 15 15 16
10 9 7 5 3 1 2 1 1 2 3 2 3 0 3 3 5 2 3 6 10 9 9 8 5 3 4 4 4 3 3 3 4 4 7 5 1 12 24 19 25 33 29 29 27 26 26 25 25 24 23 22 22 21 21 21 20 20 18 17 16 15 15 13 13 12 12 12 11 11 10 9 9 9 10 10 9 10 11 13 14 13 11 11 11 12 13 14 15 16 17 17 16 15 14 14 14
8 6 4 3 2 3 2 2 2 4 3 3 5 3 3 3 6 3 3 4 5 5 6 7 6 6 4 3 3 6 6 7 7 6 7 5 3 14 23 20 28 32 30 29 27 27 26 26 25 24 24 22 22 21 21 21 20 20 19 18 16 15 15 14 13 12 13 12 11 11 10 10 9 9 10 10 10 10 12 14 14 13 12 11 11 12 14 14 15 16 16 16 15 13 12 12 13
7 4 1 2 2 2 2 4 5 5 4 5 6 7 4 4 5 5 1 1 2 1 3 5 7 5 4 6 6 8 10 11 9 8 7 4 5 16 21 22 30 31 30 29 27 27 26 27 26 25 24 23 22 21 21 21 21 20 19 18 16 16 15 14 13 13 13 12 11 10 10 9 9 10 10 10 10 10 12 13 14 13 12 11 12 12 13 14 14 14 15 14 13 11 11 11 11
8 6 3 2 1 1 2 3 5 4 3 3 5 8 4 5 4 4 3 2 1 1 4 5 4 3 5 7 7 10 13 14 13 11 9 6 7 17 21 23 30 30 29 28 27 27 26 27 26 25 24 23 22 21 21 21 21 21 19 18 17 16 15 15 14 13 13 12 11 10 10 9 9 10 10 10 10 10 11 13 13 13 12 11 12 12 12 13 13 13 13 12 11 10 9 9 9
8 7 3 3 2 1 3 3 4 3 3 4 6 7 4 7 8 4 3 3 2 3 5 5 3 3 5 7 10 14 16 16 16 14 10 7 10 18 21 24 29 29 28 27 27 27 26 26 25 25 24 23 22 21 21 20 21 20 20 19 17 16 15 15 14 13 12 12 11 10 9 8 9 10 10 11 11 11 11 13 13 13 13 12 11 11 11 11 12 12 11 10 10 9 7 7 6
9 7 3 2 2 3 5 4 3 3 5 6 7 7 7 10 8 5 5 3 4 4 5 6 6 7 7 8 11 14 16 16 15 14 10 7 12 19 21 25 27 27 27 26 26 26 25 25 25 25 24 23 22 22 21 20 21 20 20 19 17 16 15 15 14 13 12 11 10 9 9 8 9 9 10 10 10 10 11 12 13 13 13 12 11 11 11 11 11 10 10 9 9 8 7 6 4
7 5 4 2 4 6 6 6 6 5 4 4 8 10 11 11 7 5 7 5 5 6 6 4 4 6 7 7 10 14 17 17 15 12 9 7 13 20 22 25 26 24 24 24 25 25 24 25 25 24 23 23 22 22 21 21 20 20 20 19 18 16 15 15 14 13 13 12 10 9 8 8 9 9 10 10 10 10 10 11 13 13 12 12 11 11 11 10 10 10 9 9 8 7 6 5 3
7 3 4 5 6 6 6 7 9 7 5 4 6 10 13 12 6 6 9 9 5 6 7 5 4 4 4 5 8 14 16 17 15 12 8 8 17 22 23 26 26 24 23 24 24 24 23 24 24 23 22 22 22 22 22 21 21 21 20 19 18 16 15 15 14 14 13 12 10 9 9 9 9 9 10 10 9 9 10 10 12 13 12 12 11 11 10 10 10 10 9 8 8 7 6 4 3
8 4 5 5 5 5 7 7 7 8 7 6 7 9 10 10 9 12 10 10 7 4 4 5 5 5 5 7 12 16 16 16 14 11 7 11 19 23 24 26 25 24 24 24 24 23 23 22 22 22 22 23 23 23 22 22 21 21 20 19 17 16 15 15 14 14 13 12 10 10 10 10 10 10 10 10 9 9 9 10 10 11 12 12 11 10 10 10 10 10 9 8 8 7 6 4 3
11 6 7 4 3 5 7 6 6 8 7 7 9 10 11 10 12 17 11 8 11 8 4 3 4 5 6 8 11 13 12 12 12 10 9 14 22 25 26 26 25 24 25 24 23 22 21 20 21 22 23 24 24 24 23 22 21 21 21 19 17 16 16 15 15 14 13 11 10 11 11 10 10 10 9 9 9 8 8 9 9 10 11 11 11 10 10 9 9 9 9 8 8 7 6 5 4
14 8 5 2 3 5 7 7 7 10 7 6 10 13 14 14 15 14 13 11 11 9 7 5 6 5 4 5 7 9 9 7 9 11 12 18 25 27 27 27 26 26 26 24 22 21 20 20 22 23 25 26 26 25 24 23 22 21 21 19 17 17 16 15 15 14 13 11 11 11 11 11 10 9 9 8 8 8 8 8 8 9 10 10 10 10 9 9 8 8 8 8 8 8 7 6 6
16 9 2 4 6 7 8 7 8 9 6 4 11 15 13 13 16 13 14 15 10 8 8 7 8 8 9 12 14 14 11 7 8 12 16 22 27 29 29 28 27 27 26 24 23 22 21 22 23 25 26 27 27 26 24 23 22 22 20 18 17 16 16 15 15 14 12 11 12 12 11 11 10 9 8 8 8 8 7 7 7 8 8 9 10 10 9 9 8 8 7 7 7 8 9 9 8
14 8 4 6 7 9 8 9 8 6 5 6 11 15 10 8 15 16 15 15 12 9 10 10 10 13 16 18 20 17 11 8 9 15 20 25 30 31 30 30 29 29 27 25 24 23 23 24 24 25 26 27 27 26 25 23 23 22 20 18 17 16 16 16 15 14 12 12 12 12 12 11 10 9 9 8 8 8 7 7 7 7 7 8 8 9 8 8 8 7 6 6 6 7 8 9 10
12 5 7 8 7 9 9 11 9 5 8 11 9 16 14 9 12 14 12 11 12 10 10 13 13 15 17 18 21 17 10 8 12 18 23 28 32 32 32 32 31 30 28 27 26 24 24 25 25 25 26 27 27 26 25 24 23 23 20 18 17 16 16 16 15 13 12 12 12 12 12 11 10 9 9 8 8 8 7 6 6 6 6 7 7 7 8 8 8 7 6 6 6 7 8 9 10
11 3 6 10 7 7 9 12 10 8 10 13 9 15 16 13 14 12 8 8 10 8 8 12 13 15 16 17 19 16 10 9 13 19 24 29 34 34 34 34 32 31 30 29 27 26 25 26 26 26 26 27 27 27 26 25 23 22 20 18 17 16 16 17 15 13 12 12 12 12 12 12 11 10 9 8 8 8 7 7 6 6 6 6 7 7 8 8 8 8 7 7 7 8 8 8 8
10 5 8 8 5 5 9 12 14 13 10 11 12 10 13 13 15 13 8 8 8 7 8 10 12 14 15 17 18 16 13 11 14 20 25 30 34 35 35 35 34 33 31 29 28 27 27 26 26 27 27 27 28 28 27 25 23 22 20 18 17 17 16 16 15 14 13 12 12 12 12 12 11 10 9 8 8 7 7 6 6 6 6 6 6 7 7 7 7 8 8 8 7 7 7 7 7
7 8 7 3 5 5 9 11 15 18 14 14 13 5 8 11 15 14 9 8 6 8 13 13 12 13 14 17 18 18 16 14 17 22 26 31 34 34 35 35 34 33 30 29 28 27 26 26 26 27 27 26 27 28 26 25 25 23 21 18 18 17 17 17 16 15 14 12 12 12 12 12 12 11 9 8 8 7 6 6 6 5 5 5 5 5 5 5 6 6 6 6 6 5 5 5 6
5 8 4 4 6 6 8 12 14 18 17 14 11 6 4 7 11 13 12 10 7 10 16 14 10 9 11 15 18 20 19 19 20 24 28 31 34 35 35 34 33 31 30 29 27 26 25 25 26 27 27 26 26 28 27 25 25 25 21 18 18 18 17 17 17 16 14 12 12 12 12 12 11 11 10 9 8 8 7 6 5 5 5 5 4 4 4 4 4 5 5 5 4 4 4 4 4
7 6 5 5 7 6 8 13 14 15 15 10 9 8 4 3 5 11 15 15 11 11 13 10 8 8 10 13 17 20 21 22 22 24 28 31 34 35 35 34 32 29 28 27 26 24 24 26 27 27 27 27 27 28 26 24 24 24 22 20 19 18 17 18 17 15 13 12 13 13 12 12 11 10 10 10 9 8 7 7 6 6 5 5 4 4 3 3 3 3 3 3 4 4 4 5 5
11 5 5 8 9 7 7 10 13 14 14 13 12 9 4 3 3 7 12 13 12 12 11 10 11 12 12 12 16 19 20 22 23 25 28 31 34 35 33 32 30 28 26 25 24 24 25 27 28 28 28 28 27 26 25 23 23 23 22 20 18 17 18 18 17 15 13 13 14 14 13 12 11 11 10 10 9 9 8 8 7 6 6 5 4 4 3 2 2 2 2 3 4 5 6 6 7
13 7 4 6 9 11 12 10 10 11 12 14 14 10 7 9 7 5 9 10 10 11 10 11 13 14 14 13 14 17 19 21 24 25 28 32 34 34 32 30 28 27 25 24 23 24 25 27 28 28 28 27 27 26 24 22 22 22 21 19 18 17 18 18 17 15 14 14 15 14 13 12 11 11 11 11 10 10 9 8 7 7 7 6 5 4 3 2 2 3 3 4 5 6 6 7 8
10 10 6 6 7 10 14 14 14 13 11 11 11 8 11 13 9 7 10 13 15 16 15 16 17 17 14 14 15 16 19 22 25 26 29 33 34 33 32 30 29 27 25 23 23 24 25 27 28 28 27 26 26 26 23 20 19 20 19 19 18 17 18 18 17 15 15 16 15 14 13 12 11 11 11 11 10 10 9 8 8 7 7 7 6 5 4 4 4 4 4 4 5 6 6 7 8
5 12 12 10 9 8 8 8 12 13 10 11 10 9 13 12 8 6 3 4 11 16 18 20 21 19 15 15 16 16 18 22 25 25 30 34 34 34 32 31 30 27 25 24 24 24 25 27 27 27 26 25 26 25 22 20 18 19 19 18 16 16 18 19 17 15 15 16 15 14 12 11 11 11 11 10 10 9 9 8 8 7 6 6 6 5 5 5 5 5 5 5 5 5 6 7 7
4 10 11 11 11 11 10 7 10 10 7 10 9 10 14 9 8 9 6 4 7 8 12 15 17 16 14 15 15 15 17 19 22 26 32 34 34 34 33 32 31 27 25 25 24 25 26 27 27 25 24 24 24 23 21 19 18 18 19 16 15 16 18 19 17 15 16 17 15 13 11 11 10 11 11 10 9 8 7 7 6 5 5 5 5 5 5 6 5 5 5 4 4 4 5 6 7
3 4 5 7 9 11 14 14 13 10 6 6 5 9 14 12 9 9 11 14 14 12 12 13 15 15 15 16 15 14 16 18 22 28 32 33 33 33 33 32 30 27 25 25 25 26 26 25 24 23 22 22 23 23 21 19 17 18 18 16 14 14 17 18 16 15 17 17 14 12 11 11 11 11 11 10 8 7 6 5 4 3 4 4 5 5 5 5 4 3 3 3 3 4 5 6 7
7 4 3 5 6 8 12 15 15 11 9 9 7 8 14 14 11 10 12 16 15 15 15 16 16 17 17 18 17 14 17 21 24 28 30 32 33 32 32 31 28 27 25 25 27 27 25 23 21 20 20 21 22 22 21 20 18 18 17 15 13 13 17 17 15 16 17 16 13 11 11 11 11 10 10 8 7 5 4 3 3 2 3 4 5 5 4 3 2 3 3 4 4 4 5 6 7
9 5 4 5 6 5 8 13 14 12 12 14 10 9 12 9 7 10 14 16 16 15 16 18 18 19 20 19 19 17 18 22 23 25 27 30 31 31 30 29 28 28 26 27 27 26 24 21 18 16 18 20 22 22 22 21 18 17 16 15 13 14 16 15 15 16 16 14 12 10 10 10 10 9 8 7 6 4 3 2 2 2 3 4 5 4 3 2 2 3 4 4 5 5 6 7 8
7 7 6 7 7 4 6 9 14 14 12 16 14 8 9 10 7 10 13 15 17 17 16 19 20 21 22 20 21 20 17 18 20 23 25 27 28 29 29 28 28 28 28 28 26 24 23 21 16 15 17 18 20 22 21 20 18 17 17 15 14 15 16 15 15 15 14 12 11 10 9 8 8 7 6 5 4 3 3 3 2 3 4 4 4 4 3 2 3 4 4 4 4 5 6 7 8
7 8 6 7 9 5 5 7 13 18 11 13 18 10 6 7 8 14 18 17 16 15 14 17 19 22 23 22 23 22 17 16 20 23 25 25 27 27 28 28 28 28 29 28 26 24 22 18 15 15 17 17 19 20 20 20 18 17 17 15 14 17 16 15 15 14 13 11 11 10 8 6 6 5 4 5 4 3 3 3 3 4 5 4 4 4 3 3 3 4 5 5 5 6 7 7 7
7 6 3 4 10 8 5 5 9 17 14 13 18 16 12 8 5 9 15 19 18 14 14 16 17 18 21 23 25 24 19 18 23 25 24 25 25 28 29 27 27 28 29 29 26 23 19 15 15 18 19 19 19 19 20 20 18 17 17 15 14 17 17 16 16 15 13 11 11 9 7 5 5 5 4 5 4 3 3 3 3 4 5 4 4 3 3 3 4 5 5 5 6 6 7 7 8
8 8 6 4 8 11 11 8 7 14 16 15 17 17 18 16 12 9 8 12 15 14 15 17 17 17 18 21 25 27 24 25 26 23 22 22 23 27 28 26 26 28 30 28 23 21 19 16 18 21 23 23 21 20 20 18 17 18 18 16 15 18 19 18 18 17 14 12 11 8 6 5 4 5 4 4 3 3 3 3 4 4 4 4 4 3 3 4 5 5 5 5 6 7 8 9 9
11 9 9 7 8 11 10 9 8 13 14 14 16 14 15 17 17 14 9 9 11 12 13 14 17 18 19 20 23 29 31 30 26 20 19 22 24 26 26 25 25 28 28 24 21 22 22 19 20 23 25 24 22 21 20 17 16 19 21 19 18 19 21 20 19 18 15 13 11 8 6 5 4 4 4 4 4 4 4 4 4 4 5 4 3 3 3 4 5 6 6 6 6 8 9 10 10
13 9 9 8 8 8 8 8 7 10 12 13 14 13 14 17 16 13 12 10 9 10 12 14 17 18 20 21 23 30 33 30 24 20 21 23 25 25 24 24 25 26 27 23 23 27 24 21 21 23 25 24 23 22 22 21 20 22 22 21 20 21 22 21 20 18 16 13 11 9 6 5 4 4 3 4 5 5 5 5 4 4 4 3 3 4 4 4 5 6 7 7 7 8 10 11 10
12 10 10 8 7 7 8 9 6 7 9 9 11 12 14 15 15 12 12 10 9 12 15 16 19 20 22 23 25 29 29 27 25 22 24 25 24 25 24 24 25 27 27 25 26 29 25 21 21 23 24 25 24 24 24 23 21 21 21 20 19 21 22 20 19 17 15 13 11 10 7 5 4 3 3 5 6 6 6 5 4 4 4 3 3 4 4 5 6 7 7 8 9 10 11 12 12
8 8 9 8 6 4 5 7 3 5 8 6 8 11 12 14 15 10 10 11 12 16 20 21 23 23 23 24 24 25 23 22 24 25 26 26 24 25 25 26 27 27 27 26 28 29 25 21 21 24 24 25 25 24 24 22 21 21 21 20 20 21 21 20 19 17 15 14 12 10 7 5 5 4 4 5 5 6 5 5 4 3 4 4 4 4 5 5 6 7 7 7 9 11 13 14 14
5 6 8 7 6 6 7 7 4 5 5 3 5 7 8 10 12 7 8 10 9 13 19 21 25 26 27 28 26 24 22 22 27 27 28 28 25 26 28 28 28 28 28 29 30 30 26 22 23 25 24 25 25 24 23 22 21 21 21 21 22 21 21 20 19 17 15 14 12 10 8 6 6 5 5 4 4 5 4 4 4 4 5 4 4 4 4 5 6 7 8 8 9 10 12 16 16
5 5 7 6 9 9 5 4 3 3 4 2 4 5 6 7 10 7 6 7 6 7 12 15 20 25 27 27 25 23 23 27 29 24 25 30 30 29 30 29 29 29 30 32 32 30 28 25 25 26 25 25 26 25 23 22 22 23 23 24 24 22 21 21 19 18 17 15 12 10 8 7 6 6 5 4 4 5 5 4 4 4 4 4 3 3 3 5 6 8 9 9 10 10 12 15 17
6 6 6 5 9 9 3 1 3 5 7 6 5 7 5 5 11 8 5 6 7 7 10 14 18 21 22 22 23 24 24 25 23 18 22 30 31 30 30 29 30 31 32 34 33 30 29 28 26 26 26 26 27 25 23 22 25 26 26 27 26 24 23 22 20 18 17 15 12 10 9 8 7 6 5 4 4 5 5 4 3 3 3 3 2 3 4 6 7 9 10 11 12 12 12 13 15
7 6 8 6 4 4 2 2 6 7 6 3 4 8 4 3 8 5 4 8 9 7 8 14 18 20 21 22 24 25 25 23 21 19 24 30 31 32 32 31 32 33 34 35 33 30 30 29 26 25 25 27 28 27 25 25 28 29 28 27 27 25 23 22 21 19 17 14 13 11 10 9 8 7 6 5 5 5 5 3 3 3 2 2 2 3 5 7 9 10 11 12 12 12 12 12 13
5 6 9 9 5 4 3 2 4 3 2 1 3 5 5 5 5 2 3 8 8 7 8 11 15 19 22 24 24 25 25 24 22 23 28 32 33 33 33 33 33 34 35 35 32 29 27 24 21 20 23 27 28 28 28 28 30 31 30 27 25 24 23 23 21 19 17 15 14 12 10 9 9 8 8 7 6 5 4 4 3 3 1 1 3 4 6 8 11 12 12 13 12 12 12 12 13
4 5 8 10 8 5 3 2 3 1 2 6 5 5 6 6 4 3 3 7 7 9 11 11 15 20 23 25 24 24 25 24 23 25 29 34 32 31 32 33 32 33 34 33 31 27 23 20 19 19 22 27 29 30 29 29 32 32 29 26 24 24 24 23 21 19 18 15 14 13 11 10 10 9 9 8 6 5 4 4 3 2 1 2 4 5 8 11 12 13 13 13 12 12 12 12 11
5 8 8 8 7 3 1 3 2 1 4 7 6 7 7 6 4 4 3 6 8 9 11 12 16 20 23 24 24 25 24 24 24 24 28 32 30 29 31 32 32 33 34 32 30 28 23 21 20 21 23 27 30 31 29 30 33 30 25 23 22 23 23 23 22 19 17 15 14 13 11 11 10 10 9 7 6 5 4 3 2 1 1 3 5 8 11 13 13 13 12 11 11 11 11 11 10
7 10 9 8 5 2 2 2 1 3 6 5 6 6 6 6 4 6 5 4 7 9 8 9 13 17 21 22 24 26 25 24 23 23 25 28 29 30 31 31 31 32 33 31 31 29 25 22 21 22 25 28 31 32 31 32 31 27 23 21 21 22 22 22 22 19 16 15 14 13 12 11 11 10 8 7 6 5 4 2 1 2 3 5 8 10 12 12 12 11 10 10 10 10 10 10 10
7 9 9 7 5 2 3 2 2 6 5 2 5 7 6 7 4 4 6 6 7 9 9 10 12 15 21 26 27 27 25 23 22 22 23 25 28 30 31 30 30 32 32 32 31 28 24 22 22 23 26 30 31 30 31 30 25 23 23 22 21 22 21 20 19 17 15 13 12 13 12 11 11 10 9 7 6 4 3 2 1 3 6 8 10 11 11 10 9 9 9 9 9 9 10 10 10
8 9 10 9 7 5 6 6 5 6 3 2 3 7 6 7 5 5 7 7 8 9 8 11 13 16 24 31 31 28 26 23 22 22 23 26 29 30 31 31 30 31 31 31 30 26 23 23 24 26 28 30 30 28 29 28 22 21 23 22 22 23 20 18 17 14 12 11 12 14 12 11 11 10 9 8 6 4 3 1 3 6 7 9 9 9 8 7 7 7 8 9 9 9 10 10 10
11 10 11 10 8 7 8 8 4 3 3 1 1 4 4 4 5 9 11 10 10 11 11 12 13 19 28 31 28 25 25 25 23 22 22 25 28 28 31 31 30 31 30 30 29 25 23 23 26 28 29 29 28 26 27 26 20 21 22 22 22 20 17 16 14 11 9 10 11 11 12 12 10 10 9 7 5 3 1 2 5 7 8 8 8 7 6 6 7 7 8 9 9 10 10 10 10
11 6 5 7 5 5 6 6 5 3 3 3 3 3 4 3 2 5 9 10 8 9 12 13 14 18 22 24 22 22 24 24 23 22 21 24 27 27 29 30 30 30 30 29 29 25 23 25 28 29 27 27 25 24 25 23 20 21 21 20 18 16 14 14 12 9 9 9 9 9 12 13 10 8 8 6 4 2 2 3 5 7 8 7 6 5 5 6 7 8 9 9 9 10 10 9 9
8 3 4 6 3 3 2 1 2 2 2 3 4 3 3 2 2 1 3 5 5 5 8 12 13 15 16 18 21 23 24 24 23 22 22 23 25 26 28 29 30 30 30 29 28 25 25 28 29 28 25 24 23 23 23 20 19 19 18 18 17 13 13 13 11 11 11 10 9 11 14 12 9 7 6 4 3 3 2 4 6 8 8 7 5 5 5 7 8 9 10 9 9 9 9 8 8
5 6 7 5 2 3 3 1 2 1 4 3 3 4 4 4 4 1 2 4 3 4 6 10 12 14 16 18 21 24 25 24 24 23 22 22 24 25 26 28 30 30 29 28 26 25 27 29 28 26 24 23 21 22 23 19 18 18 18 19 18 15 14 13 12 13 13 12 12 14 14 11 8 6 4 3 3 2 2 5 7 9 8 5 4 5 6 8 9 10 10 9 8 9 8 8 8
6 8 6 4 2 1 0 2 2 3 6 3 2 5 7 6 4 2 4 5 5 4 6 7 9 13 16 18 21 24 24 22 22 22 22 22 23 24 26 28 30 29 28 26 25 26 28 28 26 25 24 23 21 20 20 19 18 18 18 18 17 16 14 13 13 13 14 15 15 16 14 10 8 6 4 3 2 1 3 5 8 9 7 5 4 6 8 10 10 10 9 8 8 8 8 8 8
5 7 5 3 4 4 1 2 3 5 5 2 2 3 4 7 6 3 5 9 8 7 7 8 10 14 16 18 20 21 21 22 23 22 22 23 24 24 27 29 29 28 26 24 23 26 28 26 23 23 23 22 21 18 17 17 16 16 16 15 15 15 12 12 13 14 16 17 18 17 14 9 8 7 4 2 0 2 4 6 8 8 6 4 6 8 9 10 9 9 8 7 8 8 7 8 8
2 7 6 1 2 3 3 1 1 4 4 2 3 3 3 6 8 9 11 10 9 10 10 10 12 15 17 18 19 21 22 24 24 23 23 23 24 26 29 29 28 27 24 23 24 26 26 23 22 22 22 22 21 19 18 16 15 15 16 16 16 15 13 12 14 16 17 20 20 18 13 10 10 7 3 1 1 3 5 7 8 7 5 6 8 9 10 10 9 8 7 7 7 8 7 8 9
6 10 9 5 2 1 2 2 0 1 3 3 3 3 4 4 6 11 11 7 9 12 11 10 11 14 15 14 17 20 23 23 22 22 22 23 25 27 29 29 28 26 24 24 25 26 24 22 23 24 23 22 21 20 18 16 15 18 18 18 19 17 16 15 16 17 18 22 22 17 12 12 9 5 2 1 1 3 6 8 7 5 5 7 9 9 9 9 8 8 7 6 7 8 8 9 9
10 8 8 8 5 2 5 5 1 1 0 2 2 2 4 2 1 4 4 1 6 10 10 9 10 12 12 11 14 18 20 20 20 20 22 24 27 29 30 29 28 26 24 25 25 24 24 24 24 23 22 21 20 19 17 14 15 18 19 20 20 18 17 17 19 20 20 23 22 16 13 10 6 3 1 0 2 4 6 7 5 3 7 9 9 9 9 9 8 7 6 7 8 8 8 9 10
Wind_Direction
307 318 326 335 346 339 343 352 1 61 21 258 325 292 79 72 296 2 16 3 46 357 338 333 294 180 153 170 203 173 180 253 229 272 284 349 338 227 182 177 177 176 177 170 172 175 172 173 173 176 172 164 165 168 169 168 166 164 162 159 159 159 157 155 154 153 150 147 141 138 135 130 125 119 112 108 107 110 114 116 114 112 112 111 109 106 109 124 145 151 145 147 136 121 119 117 110
297 305 320 329 343 337 340 357 357 60 26 213 289 101 54 100 186 15 18 5 338 324 333 342 226 183 216 201 190 238 242 266 250 260 274 314 333 220 180 173 177 178 178 171 172 175 173 175 175 178 176 168 168 171 171 170 168 165 163 160 160 160 158 157 157 157 153 148 143 140 136 132 126 120 114 113 113 114 117 117 115 112 110 104 97 90 89 103 120 126 126 128 123 120 121 116 110
288 293 308 318 333 334 351 5 322 241 318 271 271 164 296 147 96 6 4 340 327 328 345 8 136 186 229 234 247 266 264 288 277 271 281 307 327 211 178 172 177 178 179 172 172 176 174 176 176 179 180 172 170 174 173 172 171 168 165 163 162 162 161 160 160 159 155 150 146 142 138 135 128 122 117 117 117 116 120 119 114 111 108 101 93 87 90 104 114 118 119 119 118 119 119 116 112
281 287 299 312 324 332 38 18 149 215 245 251 273 177 207 173 117 314 341 335 336 340 349 5 15 191 238 252 259 266 258 264 289 291 309 321 334 194 182 178 177 176 179 174 173 177 176 177 177 179 182 176 173 176 176 175 174 171 168 166 166 164 164 163 162 161 157 153 150 146 141 137 129 124 120 120 120 115 116 117 115 113 109 103 95 92 98 109 114 117 118 118 118 119 119 117 114
275 284 291 301 302 332 103 67 108 207 236 183 263 228 202 199 135 219 327 343 347 352 344 353 354 345 315 283 252 261 257 254 296 309 328 319 249 185 189 189 176 175 179 175 174 177 178 178 178 180 182 179 175 177 178 177 176 174 172 170 168 168 167 165 165 164 161 157 154 151 145 140 132 127 122 122 122 114 115 118 118 116 114 108 101 100 106 112 116 118 119 119 120 120 119 118 114
267 279 282 277 225 149 150 219 193 220 228 176 256 271 216 218 139 163 315 353 2 357 352 357 343 333 313 308 269 268 276 282 294 299 317 310 223 185 194 194 175 175 178 176 176 178 179 179 180 182 183 182 178 179 179 179 180 178 177 174 172 171 170 168 169 167 164 163 160 155 150 144 135 130 127 126 125 120 119 121 121 121 120 115 109 109 113 117 119 120 120 121 120 120 119 116 112
246 242 201 158 132 144 214 225 222 228 215 184 247 263 244 246 157 146 248 307 28 24 346 340 332 328 297 312 302 282 284 285 286 288 297 293 221 188 195 193 176 177 179 176 176 178 181 180 182 183 184 183 180 181 180 180 182 182 181 178 176 175 173 172 173 172 169 167 164 160 154 147 138 134 132 131 130 126 122 123 125 126 126 122 118 118 122 123 124 124 123 123 122 120 117 113 108
226 215 181 180 146 82 216 217 226 222 209 200 250 259 249 261 237 163 174 243 312 258 282 302 321 324 304 303 292 291 295 292 288 286 288 280 220 191 194 189 177 178 179 176 177 179 182 182 184 185 185 185 182 183 182 182 184 185 184 182 180 178 177 177 178 176 174 171 168 163 158 152 145 139 136 135 134 131 127 127 130 132 131 129 127 126 130 130 130 130 129 127 125 123 118 111 103
206 196 170 203 224 191 205 221 228 218 228 230 245 242 227 249 257 244 190 187 233 239 256 268 279 290 306 293 281 287 289 287 285 281 279 267 211 191 191 186 179 179 179 178 179 181 183 184 186 187 187 186 184 185 184 184 186 187 187 186 184 182 181 181 181 181 178 176 172 167 162 157 149 141 139 138 138 137 136 134 134 137 137 136 135 134 137 138 137 136 135 132 130 128 121 110 95
190 189 170 168 210 214 217 224 224 218 223 228 247 235 220 240 248 257 243 202 205 221 247 255 252 256 279 280 277 282 281 278 275 272 269 249 203 190 188 183 180 181 180 179 181 184 185 186 188 189 189 189 187 187 187 186 188 189 189 189 188 187 187 185 184 184 181 179 176 171 164 158 149 143 142 139 140 141 142 140 139 142 143 143 143 141 145 147 147 145 142 139 137 134 128 117 96
183 177 163 178 211 219 218 225 232 223 209 217 255 246 235 239 240 255 258 246 210 222 243 247 241 242 258 261 264 271 272 268 264 265 260 224 193 187 186 180 179 182 182 180 183 187 188 187 189 191 192 191 190 189 190 190 190 192 193 192 191 191 190 188 188 186 183 180 177 173 165 157 150 146 145 142 141 142 145 146 145 147 148 148 148 148 150 154 156 155 152 147 146 145 144 140 126
190 149 165 223 218 218 215 222 237 234 216 191 236 244 236 229 224 245 253 259 233 222 230 229 257 249 244 248 258 263 261 260 258 256 242 194 185 184 184 178 177 182 183 184 186 190 191 190 190 193 195 193 193 193 193 192 192 194 196 194 193 194 192 190 190 188 184 181 178 173 164 157 152 149 148 145 144 145 147 151 151 151 152 153 153 153 154 158 163 163 162 158 158 160 162 169 167
197 150 181 228 210 210 204 215 237 242 234 197 217 231 220 205 214 237 244 263 255 238 235 223 253 260 261 270 269 263 257 258 258 247 218 183 182 181 181 177 176 180 183 189 190 193 194 193 194 196 197 196 195 195 195 195 195 196 197 195 194 195 194 193 191 189 185 182 179 172 164 157 154 153 152 148 148 148 150 153 155 155 156 157 157 158 159 161 168 171 173 171 170 173 181 194 206
197 174 197 227 200 205 196 209 222 240 245 185 207 215 199 201 227 239 234 253 256 247 246 215 239 260 264 272 274 268 264 260 251 232 195 180 181 178 179 177 176 180 186 192 193 196 197 198 200 199 199 196 197 197 196 197 197 198 197 194 194 196 195 194 193 191 187 184 178 170 164 158 158 158 154 151 149 150 152 154 156 158 159 161 162 161 163 165 171 178 181 184 184 187 195 212 230
197 183 198 233 196 201 200 206 204 230 243 164 196 205 195 212 229 236 226 238 260 258 251 232 222 242 261 266 286 295 295 277 240 215 186 180 179 177 178 178 179 184 189 192 195 198 200 202 204 204 201 198 199 198 197 197 198 199 197 194 195 197 196 195 195 193 190 184 177 170 164 161 161 159 154 151 149 150 152 154 156 158 161 163 166 166 168 169 172 180 186 192 197 202 209 220 233
195 183 188 235 204 204 198 187 198 224 242 181 201 202 192 214 223 227 233 239 253 256 249 230 206 234 267 267 279 295 297 281 229 202 185 181 177 176 179 180 184 187 190 194 197 199 201 206 207 206 203 200 200 199 198 196 198 197 195 195 196 197 196 197 198 196 191 184 177 169 165 164 161 158 154 151 149 151 152 152 155 157 161 165 169 172 173 173 176 180 184 191 199 209 217 224 231
185 186 216 229 207 205 185 171 194 204 240 234 193 191 186 202 219 229 240 241 242 240 239 235 226 244 260 262 271 286 286 264 222 197 185 181 178 177 180 183 188 188 191 195 198 200 204 207 209 209 206 203 201 199 198 197 195 193 193 195 196 196 197 198 199 198 193 185 178 170 167 165 161 158 156 154 151 151 152 151 154 157 160 164 168 173 176 177 180 182 184 187 193 204 215 224 231
175 189 219 222 207 197 176 177 187 165 223 238 187 183 190 187 207 224 233 234 235 232 230 236 238 243 252 260 270 280 272 234 209 197 187 182 180 180 182 185 189 189 191 195 197 201 205 209 209 211 209 204 202 199 198 197 193 189 191 193 193 195 197 201 201 199 195 187 180 173 169 166 163 162 160 157 153 150 151 151 155 160 163 163 165 169 175 179 182 183 184 188 194 204 212 222 230
189 186 216 221 203 179 176 184 186 183 219 243 226 192 193 195 199 211 219 214 216 214 217 228 232 236 246 260 268 273 256 216 203 200 190 184 183 183 184 186 189 191 193 195 197 201 206 209 210 212 211 206 202 200 199 196 189 187 189 189 190 192 196 202 201 199 197 189 183 175 170 169 168 168 168 164 158 155 153 154 158 163 167 168 169 171 175 180 183 186 190 195 202 210 218 227 235
203 205 224 220 170 164 188 190 193 202 213 241 247 205 191 198 197 203 210 207 202 198 205 214 226 236 245 257 262 262 244 211 202 200 193 188 187 187 188 189 191 193 194 196 198 201 206 209 211 213 210 207 202 199 200 195 189 188 189 189 189 191 195 199 199 200 197 191 185 177 173 172 172 172 172 170 166 162 161 162 162 163 166 171 177 182 184 186 188 193 199 206 213 222 231 237 240
191 207 229 181 147 185 192 191 200 208 213 232 248 223 181 189 199 200 193 205 205 209 224 228 233 245 252 257 258 254 238 211 202 201 196 192 190 190 192 193 193 194 195 197 200 203 206 210 212 213 209 205 202 199 199 197 193 192 191 189 189 193 197 197 198 200 196 192 185 178 176 175 175 174 174 175 172 169 168 169 166 162 162 167 174 181 190 197 199 204 212 221 229 236 242 246 246
185 213 232 109 163 201 189 189 201 207 215 232 248 253 190 178 199 195 191 215 223 217 231 237 240 257 269 265 260 252 237 214 204 202 199 197 194 193 195 196 195 195 196 199 202 205 208 211 213 212 207 204 203 201 200 198 196 195 193 190 192 196 197 195 198 199 194 190 184 179 178 177 178 177 176 177 175 171 171 171 165 158 154 155 158 160 171 185 197 211 225 232 237 245 253 258 258
212 219 206 164 177 192 185 193 205 209 215 226 240 253 233 177 193 192 202 224 230 217 224 241 256 272 278 273 263 251 235 217 208 207 204 200 198 197 198 199 198 198 199 202 204 206 209 212 213 211 208 207 205 202 199 198 196 195 196 194 196 197 195 196 199 196 191 186 181 177 176 177 178 177 177 176 174 170 169 167 159 151 148 143 140 136 138 151 174 202 219 230 240 254 261 267 270
223 217 178 189 192 197 191 191 204 212 219 227 238 254 249 224 219 197 210 222 224 223 229 246 262 275 282 278 264 248 233 220 213 210 206 203 201 201 201 201 201 201 203 205 206 208 211 213 213 211 211 210 206 201 198 198 196 195 197 196 197 198 196 198 199 194 189 183 178 175 174 176 177 175 175 175 173 170 166 162 158 155 153 145 138 135 133 142 166 197 225 245 257 265 270 277 279
224 219 160 181 193 206 218 220 219 222 228 236 248 259 253 248 251 237 232 224 219 228 240 251 263 275 281 279 265 244 228 216 212 208 203 203 203 203 204 204 204 205 207 208 208 210 212 214 214 213 212 210 205 201 199 197 196 195 197 198 200 201 200 200 198 193 187 181 177 174 174 174 174 173 174 175 173 169 166 162 162 163 165 163 159 160 167 185 217 237 252 262 270 277 281 284 284
212 209 192 190 196 205 220 233 240 245 246 248 257 264 259 257 258 257 248 242 244 246 254 264 269 273 275 274 267 245 226 214 211 207 205 205 205 205 205 205 207 208 210 209 210 211 213 215 216 215 212 209 207 204 200 196 194 196 197 200 203 202 200 199 197 194 187 181 178 175 175 174 173 173 174 175 173 170 168 166 169 171 174 178 177 184 199 212 232 246 257 265 275 283 286 289 290
183 203 208 210 217 222 220 225 238 246 255 253 254 262 262 257 244 238 206 227 244 242 246 251 257 265 265 266 262 241 222 214 211 207 207 207 206 207 206 207 208 209 211 210 210 212 214 216 216 216 212 209 210 207 201 195 195 198 200 200 202 201 198 197 196 194 188 182 180 178 177 176 174 175 177 176 174 173 173 175 178 178 181 186 186 190 203 217 232 242 252 261 270 280 288 294 299
144 189 203 213 222 236 234 226 233 235 248 244 240 260 262 245 225 225 204 222 246 241 243 242 249 257 256 258 252 230 214 210 209 209 211 210 210 210 207 209 209 208 211 210 210 213 215 216 216 216 214 212 211 208 202 196 197 202 203 201 201 203 198 196 197 193 186 182 180 179 179 179 177 176 177 176 175 175 178 183 185 186 190 198 200 200 209 221 235 247 259 269 282 292 297 301 309
161 160 189 202 208 229 227 226 231 219 230 226 210 257 252 229 211 209 220 238 247 248 253 251 250 250 249 249 241 220 209 205 209 216 217 215 215 214 211 212 210 208 210 210 211 213 215 216 217 217 216 214 212 211 205 199 201 205 204 203 203 203 198 197 198 190 182 179 177 177 180 181 178 175 176 176 176 177 181 186 186 194 204 210 215 216 220 226 245 268 289 302 308 305 301 305 317
205 203 210 191 197 223 206 211 222 213 218 199 179 242 243 228 209 198 220 231 230 229 234 240 240 241 244 242 231 215 210 214 219 222 219 217 218 218 216 215 212 211 211 212 212 214 215 216 217 219 219 217 213 212 209 204 207 207 205 205 204 200 197 199 197 187 179 177 176 175 177 179 177 175 176 178 181 182 183 187 187 207 223 225 229 236 239 251 288 298 310 316 313 309 307 312 322
188 181 215 211 214 208 173 192 203 203 214 198 196 245 245 231 188 189 217 218 214 212 214 225 228 231 236 234 227 217 213 221 225 225 222 222 222 221 221 218 212 212 213 214 214 214 217 217 217 220 222 219 213 213 212 212 213 209 208 211 207 200 198 198 193 185 180 177 178 180 180 180 176 174 178 183 188 188 186 195 200 222 238 242 244 248 259 294 316 308 312 315 313 312 312 317 322
175 180 204 205 211 194 171 192 192 196 208 195 203 246 252 248 218 203 217 208 205 208 206 214 219 226 230 228 225 219 214 219 223 226 227 227 226 225 225 221 214 212 215 217 216 215 216 217 218 220 225 221 216 216 215 216 216 211 212 217 211 202 200 197 191 186 184 181 179 182 185 182 177 174 176 182 184 184 194 212 221 240 250 260 264 261 275 303 308 305 302 298 303 307 310 316 320
185 201 200 183 197 197 182 192 193 199 198 193 208 232 252 251 231 216 224 215 202 205 206 208 215 221 224 224 225 218 209 212 220 226 228 229 230 229 226 220 215 213 216 218 216 214 216 218 219 222 226 223 219 220 216 216 215 209 213 219 212 204 202 197 193 191 191 184 181 185 184 175 171 164 161 166 167 173 196 221 230 238 247 262 271 270 276 284 288 291 291 295 298 303 311 315 318
183 198 195 164 188 191 181 178 197 203 202 199 209 227 237 236 224 202 210 211 202 198 202 207 214 219 220 223 224 219 211 213 219 222 223 225 227 226 225 219 214 214 217 218 217 218 219 214 211 214 219 217 216 217 215 214 212 208 212 215 208 204 201 197 194 195 194 188 188 190 178 165 158 147 143 149 155 174 203 222 227 231 241 253 264 269 278 286 291 288 290 301 302 305 313 317 323
162 174 179 145 178 192 195 187 182 196 207 212 207 221 235 236 238 221 193 195 200 200 199 203 210 215 219 222 222 220 219 219 220 220 218 218 221 224 224 219 215 215 218 219 221 225 222 211 206 211 214 212 210 210 210 209 205 206 210 208 202 199 198 197 194 193 193 193 195 190 177 170 157 148 148 150 164 196 217 228 231 238 247 256 269 284 301 306 303 299 301 306 307 311 318 324 330
159 166 178 164 176 194 201 200 186 187 204 217 213 217 229 236 238 232 217 192 194 200 197 201 206 211 216 219 222 221 220 222 221 219 215 216 221 226 225 219 216 217 220 220 223 226 221 211 208 212 215 213 209 207 206 201 198 204 207 202 196 193 194 195 194 192 192 195 195 187 181 178 163 160 167 180 197 212 226 237 242 254 259 261 276 292 303 308 308 309 310 313 317 320 325 330 332
163 163 180 176 183 191 197 213 207 193 207 218 217 220 224 233 238 229 220 203 188 186 185 197 204 208 213 216 221 222 221 223 223 220 221 222 225 227 225 220 217 220 222 219 221 224 220 212 210 211 214 213 210 208 206 205 203 204 205 201 195 191 193 196 195 193 193 194 191 185 181 175 171 177 193 216 220 218 227 237 246 256 259 261 273 287 298 307 313 315 313 317 323 325 327 331 332
167 171 182 185 193 189 189 212 215 196 215 220 213 223 227 231 239 224 206 201 196 187 183 191 200 207 215 216 220 222 222 223 224 226 228 228 228 228 225 222 221 222 222 218 219 224 221 215 211 207 210 213 212 211 211 211 206 202 201 201 199 193 194 199 199 199 198 195 191 186 181 180 186 198 224 233 224 219 225 237 247 250 254 264 280 294 303 307 314 316 316 321 326 328 330 331 334
173 177 182 191 190 178 193 215 224 185 211 226 202 219 231 232 238 223 194 203 209 200 194 192 196 203 213 218 220 220 220 221 225 227 229 231 230 228 227 226 225 224 224 220 219 223 222 216 209 204 209 214 213 212 213 212 207 205 205 204 201 196 196 202 206 205 202 196 193 190 189 195 202 216 237 232 217 215 222 232 241 245 254 270 290 301 304 304 310 316 322 329 330 331 330 330 333
192 182 182 189 169 173 203 203 189 182 209 249 186 210 235 233 242 231 194 213 220 207 202 198 197 199 208 217 219 216 213 216 222 224 226 229 228 228 229 228 225 223 222 220 219 221 220 215 207 201 207 214 212 210 210 210 208 207 207 202 198 195 199 207 209 206 203 199 196 196 200 204 207 220 235 223 206 207 208 219 228 237 254 270 286 295 300 306 316 324 327 332 333 331 327 328 332
208 206 190 170 163 186 219 191 166 189 220 213 166 218 238 224 238 233 187 212 227 198 196 200 202 204 210 216 216 216 215 216 220 219 219 224 226 228 229 227 225 221 219 221 221 219 217 215 210 202 204 209 210 207 205 207 205 201 200 198 195 197 206 212 209 206 205 203 200 202 206 203 202 216 226 210 199 203 199 202 213 227 247 259 272 288 307 317 325 329 327 328 330 328 325 327 329
204 223 216 174 163 180 212 190 183 211 219 195 188 234 230 199 228 223 156 187 206 180 185 197 203 207 212 215 215 217 220 221 221 216 217 223 225 227 227 225 224 222 222 225 223 218 216 216 211 205 204 206 208 206 206 211 206 199 197 194 193 200 208 210 209 209 208 206 205 207 206 198 199 210 213 205 206 207 195 189 202 217 235 249 277 311 322 326 327 328 325 324 324 323 325 326 327
194 197 210 204 163 165 166 185 196 214 228 181 196 236 233 195 221 207 151 191 193 173 190 197 199 206 209 212 214 215 218 219 219 219 222 225 226 227 226 224 224 223 224 229 226 218 217 218 213 209 209 209 208 208 210 211 205 198 195 193 193 198 204 207 211 211 209 211 211 207 201 195 198 204 203 204 211 209 195 187 200 211 225 258 316 326 326 326 325 323 321 318 319 321 325 326 326
180 161 192 202 210 207 188 193 207 229 280 214 190 225 242 236 217 134 144 196 186 180 201 200 200 206 209 212 214 213 216 216 213 218 224 227 228 228 227 224 224 225 227 230 226 216 217 221 218 215 218 217 213 213 214 210 203 197 194 192 193 197 203 208 211 210 209 212 210 203 196 194 196 198 198 202 206 199 188 188 196 208 229 306 326 322 320 320 319 317 315 315 318 323 326 328 330
155 155 189 198 211 216 192 225 229 18 286 227 183 169 226 238 203 103 148 193 193 193 201 204 205 207 209 212 214 214 216 215 213 215 222 227 226 226 227 227 226 226 228 227 219 217 220 220 215 213 220 222 219 218 218 212 205 201 197 195 194 196 203 209 211 210 208 206 203 198 193 195 198 196 195 197 193 180 177 187 191 197 246 319 320 319 318 315 313 313 313 315 320 326 331 335 337
150 169 192 202 210 208 206 253 246 328 265 230 178 167 220 240 197 172 172 194 201 197 202 207 205 207 210 210 211 213 214 214 213 215 222 226 225 225 227 228 228 228 227 221 217 223 224 215 210 209 216 223 222 221 220 213 206 202 201 202 199 195 198 207 211 209 206 200 198 197 193 196 199 197 195 188 179 176 181 188 182 193 268 308 317 320 316 312 311 312 315 320 327 335 341 346 347
144 167 190 203 208 201 229 265 302 265 253 225 187 182 223 246 206 187 195 193 188 190 202 208 206 210 214 212 210 211 211 210 210 212 219 222 224 228 230 229 229 228 224 218 217 223 222 216 211 208 216 225 226 223 218 211 206 203 204 206 204 197 195 205 210 206 203 200 200 199 194 195 198 197 193 181 176 179 179 184 214 277 311 328 329 323 316 312 312 315 322 331 341 350 355 357 358
151 166 177 187 198 210 230 218 219 238 238 200 190 187 210 235 222 190 206 203 191 191 193 198 204 210 216 217 215 212 209 207 205 208 212 215 221 226 228 227 226 225 221 215 215 218 221 221 214 209 219 227 229 225 218 216 212 205 206 208 206 201 198 206 209 205 201 201 209 211 201 194 194 191 185 178 180 177 172 199 293 332 343 341 331 323 318 319 322 327 340 351 0 5 7 9 10
177 173 168 175 183 192 217 208 206 226 219 54 177 183 208 240 242 243 237 227 216 210 201 195 195 202 213 218 218 213 208 204 202 204 206 210 216 219 222 223 223 222 218 210 211 217 221 223 217 214 221 228 231 228 223 222 213 203 205 206 206 204 203 206 209 208 204 206 220 224 213 198 190 187 181 177 178 179 184 238 355 359 351 340 331 328 331 337 344 353 4 12 16 18 19 21 18
191 182 176 180 175 181 205 206 207 218 188 92 103 178 216 251 233 229 232 235 224 213 217 213 201 206 214 217 215 210 206 204 201 200 202 207 211 215 218 219 219 219 215 207 212 220 219 216 217 219 223 228 231 227 222 220 209 204 206 205 206 206 204 206 209 211 215 215 219 223 216 202 189 184 178 172 176 182 171 23 9 355 345 340 340 346 354 4 13 18 24 28 27 27 28 24 17
192 189 185 189 178 185 199 197 197 180 149 145 135 176 206 200 194 215 226 241 238 217 220 220 216 218 219 216 211 205 202 201 200 199 199 203 208 212 214 216 217 217 213 208 213 219 214 211 215 218 221 226 228 222 219 216 206 202 202 204 210 209 206 212 212 212 220 221 217 215 211 200 185 177 173 170 169 143 65 20 358 348 350 353 359 8 16 26 33 37 39 38 33 32 31 24 20
188 176 196 203 188 167 160 171 181 138 130 173 180 213 229 227 289 305 236 250 248 229 213 205 209 212 208 205 202 200 199 198 198 199 197 199 206 211 212 212 214 213 211 209 212 214 209 208 213 216 218 224 225 218 212 206 198 195 197 206 211 208 212 217 213 212 216 214 211 210 204 192 181 179 171 157 132 99 52 2 352 356 2 8 12 21 34 46 51 50 47 42 38 36 34 28 27
164 184 196 188 117 114 133 104 59 110 211 196 166 223 244 262 272 211 172 214 204 198 195 191 193 188 188 194 195 197 197 195 195 197 194 194 200 207 210 209 209 210 210 210 212 209 205 206 210 213 218 223 223 216 207 197 193 193 197 205 209 212 221 221 214 214 213 204 202 204 198 185 181 186 166 140 120 86 19 357 356 1 9 16 24 41 57 64 62 55 51 46 42 42 39 34 34
158 191 183 123 74 8 138 161 128 176 211 206 154 215 224 231 242 136 160 201 198 190 189 182 179 178 186 195 196 196 193 190 192 194 191 190 196 203 205 205 206 207 209 212 210 204 203 208 210 213 219 220 217 213 204 198 199 201 204 207 214 221 224 221 217 213 209 202 194 196 193 183 181 180 167 160 140 32 353 357 356 2 15 30 48 68 75 71 65 58 54 50 47 49 45 38 39
185 183 157 137 196 207 180 168 165 175 196 215 187 214 223 215 221 220 200 203 199 190 186 184 183 186 193 196 195 192 187 187 190 190 188 189 194 199 199 200 203 206 211 211 202 199 204 207 208 212 218 217 214 210 204 201 205 211 213 211 217 222 216 217 218 204 200 201 193 188 187 182 179 173 173 185 65 2 352 358 357 4 26 56 73 82 79 72 68 62 58 52 52 57 52 43 43
194 172 168 218 228 191 181 174 173 177 183 205 197 197 224 216 219 231 227 207 183 180 186 195 196 194 196 193 188 186 185 187 188 186 186 189 192 196 197 198 200 205 210 205 197 199 203 201 202 208 212 214 214 213 212 211 205 205 211 210 213 212 199 202 211 200 196 200 192 181 177 177 175 170 173 184 26 1 354 358 357 8 47 82 87 87 81 74 70 63 57 56 63 65 55 47 51
182 185 183 191 184 159 197 189 43 189 178 192 206 215 224 214 208 224 231 207 177 182 189 197 200 198 197 190 185 185 186 187 186 182 184 188 192 194 197 198 199 203 206 201 198 200 199 197 203 209 210 211 213 213 216 215 199 196 203 205 206 201 187 188 203 203 198 196 188 175 170 173 171 168 174 149 16 351 349 351 355 22 81 98 96 92 84 78 71 62 61 68 75 70 56 55 60
183 191 187 189 188 165 183 189 185 285 246 182 202 255 251 236 185 224 238 198 183 188 187 190 195 195 193 190 187 186 184 182 180 181 185 188 190 191 193 195 197 200 201 198 197 198 198 199 205 209 209 209 211 212 212 207 196 195 199 201 201 196 186 185 194 198 196 192 185 171 165 168 166 170 175 328 333 337 344 347 1 69 109 109 104 96 87 81 72 68 76 82 79 69 61 66 68